Terminal Aerodrome Forecast
Issued by NWS

Home | Current Version | Previous Version | Text Only | Print | Product List | Glossary On
Versions: 1 2 3 4 5 6 7 8 9 10 11 12 13 14 15 16 17 18 19 20 21 22 23 24 25
000
FTUS44 KOUN 022320
TAFWWR
TAF
KWWR 022320Z 0300/0324 17020G24KT P6SM SKC
     FM030200 17013G25KT P6SM SCT250
     FM031500 19017G30KT P6SM SCT100 SCT250=

USA.gov is the U.S. government's official web portal to all federal, state and local government web resources and services.